Location: Unspecified
(48.5670°N, 0.0000°E)
Time: 22:59:52
(UTC+00:00)

Transit 4A - Pass Details

Date: 03 September 2019
Orbit: 865 x 980 km, 66.8° (Epoch: 15 September)

Event Time Altitude Azimuth Distance (km) Brightness Sun altitude
Rises 23:23:24 0° 325° (NW) 3,638 11.9 -33.5°
Reaches altitude 10° 23:26:02 10° 328° (NNW) 2,674 11.0 -33.6°
Enters shadow 23:31:09 56° 2° (N) 1,100 8.4 -33.7°
